Regional Weather Roundup
Issued by NWS Little Rock, AR

Home | Current Version | Previous Version | Text Only | Print | Product List | Glossary On
Versions: 1 2 3 4 5 6 7 8 9 10 11 12 13 14 15 16 17 18 19 20 21 22 23 24 25 26 27 28 29 30 31
000
ASUS44 KLZK 251005
RWRLZK

WEATHER ROUNDUP FOR ARKANSAS
NATIONAL WEATHER SERVICE LITTLE ROCK AR
500 AM CDT TUE JUL 25 2017

NOTE: "FAIR" INDICATES FEW OR NO CLOUDS BELOW 12,000 FEET WITH NO
SIGNIFICANT WEATHER AND/OR OBSTRUCTIONS TO VISIBILITY.

ARZ001-003-010-029-251100-
NORTHWEST ARKANSAS

CITY           SKY/WX    TMP DP  RH WIND       PRES   REMARKS
FAYETTEVILLE   CLEAR     70  70 100 CALM      30.08R
FORT SMITH     CLEAR     77  74  90 CALM      30.03R
HARRISON       CLEAR     77  71  82 W6        30.07R
BENTONVILLE    CLEAR     73  68  83 CALM      30.08S
ROGERS         PTCLDY    75  70  84 SW6       30.08S
SILOAM SPGS    CLEAR     72  68  88 SW3       30.07S
HIGHFILL       CLEAR     73  71  93 CALM      30.07S
$$

ARZ004-005-016-251100-
NORTH CENTRAL ARKANSAS

CITY           SKY/WX    TMP DP  RH WIND       PRES   REMARKS
BATESVILLE     CLEAR     77  73  88 SE3       30.03R
FLIPPIN        PTCLDY    75  66  73 W5        30.01S
MTN HOME       CLEAR     74  71  91 CALM      30.03S
$$

ARZ040-041-251100-
WEST CENTRAL ARKANSAS

CITY           SKY/WX    TMP DP  RH WIND       PRES   REMARKS
MENA           CLEAR     73  72  94 CALM      30.08S
MOUNT IDA      CLEAR     73  72  96 CALM      30.04R FOG
$$

ARZ009-017-025-026-028-251100-
NORTHEAST ARKANSAS

CITY           SKY/WX    TMP DP  RH WIND       PRES   REMARKS
JONESBORO      CLEAR     77  77 100 CALM      30.03R
WALNUT RIDGE   CLEAR     77  73  88 SE6       30.03R
BLYTHEVILLE    CLEAR     77  76  96 SW5       30.04R
$$

ARZ022-023-033-042-044-251100-
CENTRAL ARKANSAS

CITY           SKY/WX    TMP DP  RH WIND       PRES   REMARKS
LITTLE ROCK    CLEAR     77  77 100 CALM      30.03R
JACKSONVILLE   CLEAR     77  77  99 CALM      30.02R
CONWAY           N/A     79  75  89 S3        30.01R
SEARCY         CLEAR     76  76 100 CALM      30.04R FOG
HOT SPRINGS    CLEAR     77  76  96 CALM      30.05R
RUSSELLVILLE   CLEAR     74  74 100 CALM      30.02R
CLINTON        FAIR      75  73  94 CALM      30.03R
$$

ARZ036-251100-
EAST ARKANSAS

CITY           SKY/WX    TMP DP  RH WIND       PRES   REMARKS
WEST MEMPHIS   CLEAR     74  74 100 CALM      30.03R
$$

ARZ050-053-066-070-073-251100-
SOUTHWEST ARKANSAS

CITY           SKY/WX    TMP DP  RH WIND       PRES   REMARKS
ARKADELPHIA    FAIR      75  74  96 CALM      30.05R
CAMDEN         CLEAR     75  72  88 CALM      30.05R FOG
TEXARKANA      CLEAR     76  75  97 SW3       30.05R
EL DORADO      CLEAR     74  74 100 S3        30.06R
DE QUEEN       PTCLDY    73  73 100 CALM      30.03R FOG
$$

ARZ056-057-069-251100-
SOUTHEAST ARKANSAS

CITY           SKY/WX    TMP DP  RH WIND       PRES   REMARKS
PINE BLUFF     CLEAR     76  75  97 S3        30.04R
STUTTGART      CLEAR     79  64  61 S8        30.04R
MONTICELLO     MOCLDY    77  75  93 SW3       30.05R

$$






USA.gov is the U.S. government's official web portal to all federal, state and local government web resources and services.